| time (UTC) | temp C | wind direction | speed KPH | gust KPH | rain 1hr cm | rain 24hr cm | rain mn cm | humidity % | barometer mb |
| 20260504221946 | 25 | 349 | 11.3 | 22.5 | 0.00 | 0.00 | 0.00 | 26 | 1005.9 |
| 20260504220946 | 25 | 350 | 9.7 | 20.9 | 0.00 | 0.00 | 0.00 | 26 | 1006.0 |
| 20260504220446 | 25 | 358 | 11.3 | 17.7 | 0.00 | 0.00 | 0.00 | 26 | 1006.0 |
| 20260504215946 | 25 | 350 | 9.7 | 19.3 | 0.00 | 0.00 | 0.00 | 27 | 1006.0 |
| 20260504215446 | 25 | 344 | 9.7 | 19.3 | 0.00 | 0.00 | 0.00 | 26 | 1006.0 |
| 20260504214946 | 25 | 347 | 11.3 | 17.7 | 0.00 | 0.00 | 0.00 | 27 | 1005.9 |
| 20260504214446 | 25 | 355 | 11.3 | 22.5 | 0.00 | 0.00 | 0.00 | 28 | 1006.1 |
| 20260504213446 | 25 | 359 | 11.3 | 22.5 | 0.00 | 0.00 | 0.00 | 29 | 1006.3 |
| 20260504212945 | 25 | 2 | 11.3 | 22.5 | 0.00 | 0.00 | 0.00 | 28 | 1006.2 |
| 20260504211946 | 25 | 336 | 11.3 | 25.7 | 0.00 | 0.00 | 0.00 | 28 | 1006.1 |
| 20260504211446 | 25 | 328 | 12.9 | 25.7 | 0.00 | 0.00 | 0.00 | 29 | 1006.1 |
| 20260504210446 | 25 | 357 | 12.9 | 24.1 | 0.00 | 0.00 | 0.00 | 29 | 1006.2 |
| 20260504205946 | 25 | 346 | 12.9 | 22.5 | 0.00 | 0.00 | 0.00 | 29 | 1006.1 |
| 20260504205446 | 25 | 346 | 11.3 | 22.5 | 0.00 | 0.00 | 0.00 | 30 | 1006.2 |
| 20260504204946 | 25 | 2 | 12.9 | 24.1 | 0.00 | 0.00 | 0.00 | 30 | 1006.2 |
| 20260504204446 | 25 | 4 | 11.3 | 24.1 | 0.00 | 0.00 | 0.00 | 29 | 1006.2 |
| 20260504203446 | 25 | 2 | 12.9 | 22.5 | 0.00 | 0.00 | 0.00 | 33 | 1006.2 |
| 20260504202446 | 25 | 349 | 11.3 | 20.9 | 0.00 | 0.00 | 0.00 | 33 | 1006.3 |
| 20260504201945 | 25 | 355 | 11.3 | 22.5 | 0.00 | 0.00 | 0.00 | 31 | 1006.3 |
| 20260504201446 | 25 | 7 | 11.3 | 25.7 | 0.00 | 0.00 | 0.00 | 32 | 1006.3 |
| 20260504200946 | 25 | 354 | 11.3 | 25.7 | 0.00 | 0.00 | 0.00 | 33 | 1006.3 |
| 20260504200445 | 24 | 345 | 11.3 | 20.9 | 0.00 | 0.00 | 0.00 | 34 | 1006.4 |
| 20260504195946 | 24 | 348 | 11.3 | 20.9 | 0.00 | 0.00 | 0.00 | 33 | 1006.4 |
| 20260504195446 | 24 | 349 | 11.3 | 20.9 | 0.00 | 0.00 | 0.00 | 33 | 1006.4 |
| 20260504194946 | 24 | 350 | 9.7 | 19.3 | 0.00 | 0.00 | 0.00 | 34 | 1006.4 |
| 20260504194446 | 24 | 351 | 11.3 | 22.5 | 0.00 | 0.00 | 0.00 | 34 | 1006.5 |
| 20260504193945 | 24 | 359 | 11.3 | 22.5 | 0.00 | 0.00 | 0.00 | 34 | 1006.4 |
| 20260504193446 | 24 | 14 | 9.7 | 24.1 | 0.00 | 0.00 | 0.00 | 34 | 1006.5 |
| 20260504192446 | 24 | 6 | 9.7 | 19.3 | 0.00 | 0.00 | 0.00 | 34 | 1006.6 |
| 20260504191446 | 23 | 359 | 8.0 | 17.7 | 0.00 | 0.00 | 0.00 | 37 | 1006.6 |
| 20260504190946 | 23 | 11 | 11.3 | 20.9 | 0.00 | 0.00 | 0.00 | 34 | 1006.7 |
| 20260504185946 | 23 | 7 | 11.3 | 20.9 | 0.00 | 0.00 | 0.00 | 35 | 1006.8 |
| 20260504185446 | 23 | 357 | 11.3 | 19.3 | 0.00 | 0.00 | 0.00 | 35 | 1006.8 |
| 20260504184947 | 23 | 356 | 11.3 | 19.3 | 0.00 | 0.00 | 0.00 | 36 | 1006.8 |
| 20260504184446 | 23 | 359 | 11.3 | 22.5 | 0.00 | 0.00 | 0.00 | 37 | 1006.9 |
| 20260504182946 | 23 | 343 | 9.7 | 20.9 | 0.00 | 0.00 | 0.00 | 36 | 1006.9 |
| 20260504182446 | 23 | 6 | 9.7 | 19.3 | 0.00 | 0.00 | 0.00 | 38 | 1006.9 |
| 20260504181946 | 22 | 12 | 6.4 | 19.3 | 0.00 | 0.00 | 0.00 | 38 | 1006.9 |
| 20260504181446 | 23 | 7 | 4.8 | 14.5 | 0.00 | 0.00 | 0.00 | 37 | 1006.9 |
| 20260504180946 | 22 | 1 | 8.0 | 19.3 | 0.00 | 0.00 | 0.00 | 38 | 1007.0 |
| 20260504180446 | 22 | 356 | 9.7 | 19.3 | 0.00 | 0.00 | 0.00 | 38 | 1007.0 |
| 20260504175946 | 22 | 351 | 6.4 | 19.3 | 0.00 | 0.00 | 0.00 | 40 | 1006.9 |
| 20260504175446 | 22 | 8 | 8.0 | 19.3 | 0.00 | 0.00 | 0.00 | 40 | 1007.0 |
| 20260504174945 | 22 | 13 | 8.0 | 17.7 | 0.00 | 0.00 | 0.00 | 39 | 1007.0 |
| 20260504173946 | 22 | 13 | 3.2 | 17.7 | 0.00 | 0.00 | 0.00 | 40 | 1007.0 |
| 20260504173446 | 21 | 23 | 6.4 | 19.3 | 0.00 | 0.00 | 0.00 | 39 | 1007.1 |
| 20260504172946 | 21 | 8 | 8.0 | 19.3 | 0.00 | 0.00 | 0.00 | 37 | 1007.1 |
| 20260504172447 | 21 | 15 | 8.0 | 17.7 | 0.00 | 0.00 | 0.00 | 40 | 1007.1 |
| 20260504171946 | 21 | 22 | 8.0 | 19.3 | 0.00 | 0.00 | 0.00 | 40 | 1007.2 |
| 20260504171447 | 21 | 12 | 4.8 | 19.3 | 0.00 | 0.00 | 0.00 | 41 | 1007.2 |
| 20260504170946 | 21 | 11 | 3.2 | 19.3 | 0.00 | 0.00 | 0.00 | 42 | 1007.2 |
| 20260504170446 | 20 | 15 | 3.2 | 19.3 | 0.00 | 0.00 | 0.00 | 40 | 1007.2 |
| 20260504160446 | 16 | 0 | 0.0 | 0.0 | 0.00 | 0.00 | 0.00 | 57 | 1007.2 |
| 20260504150946 | 13 | 0 | 0.0 | 0.0 | 0.00 | 0.00 | 0.00 | 71 | 1007.5 |
| 20260504150446 | 12 | 0 | 0.0 | 0.0 | 0.00 | 0.00 | 0.00 | 72 | 1007.5 |
| 20260504110446 | 10 | 0 | 0.0 | 0.0 | 0.00 | 0.00 | 0.00 | 76 | 1006.3 |
| 20260504100446 | 12 | 0 | 0.0 | 0.0 | 0.00 | 0.00 | 0.00 | 69 | 1006.4 |
| 20260504081946 | 13 | 150 | 0.0 | 6.4 | 0.00 | 0.00 | 0.00 | 69 | 1006.1 |
| 20260504081446 | 13 | 150 | 0.0 | 6.4 | 0.00 | 0.00 | 0.00 | 68 | 1006.1 |
| 20260504080946 | 13 | 147 | 0.0 | 8.0 | 0.00 | 0.00 | 0.00 | 66 | 1006.1 |
| 20260504080446 | 13 | 148 | 0.0 | 8.0 | 0.00 | 0.00 | 0.00 | 66 | 1006.1 |
| 20260504050446 | 17 | 167 | 0.0 | 3.2 | 0.00 | 0.00 | 0.00 | 51 | 1006.4 |
| 20260504045946 | 17 | 167 | 0.0 | 3.2 | 0.00 | 0.00 | 0.00 | 52 | 1006.5 |
| 20260504045446 | 17 | 0 | 0.0 | 0.0 | 0.00 | 0.00 | 0.00 | 53 | 1006.5 |
| 20260504044946 | 17 | 0 | 0.0 | 0.0 | 0.00 | 0.00 | 0.00 | 53 | 1006.5 |
| 20260504044446 | 17 | 0 | 0.0 | 0.0 | 0.00 | 0.00 | 0.00 | 54 | 1006.6 |
| 20260504043946 | 17 | 0 | 0.0 | 0.0 | 0.00 | 0.00 | 0.00 | 53 | 1006.5 |
| 20260504043446 | 17 | 143 | 0.0 | 6.4 | 0.00 | 0.00 | 0.00 | 53 | 1006.5 |
| 20260504042946 | 17 | 144 | 1.6 | 6.4 | 0.00 | 0.00 | 0.00 | 52 | 1006.5 |
| 20260504042446 | 18 | 144 | 0.0 | 9.7 | 0.00 | 0.00 | 0.00 | 51 | 1006.5 |
| 20260504041947 | 18 | 144 | 0.0 | 9.7 | 0.00 | 0.00 | 0.00 | 50 | 1006.4 |
| 20260504041445 | 18 | 144 | 0.0 | 4.8 | 0.00 | 0.00 | 0.00 | 48 | 1006.4 |
| 20260504035945 | 20 | 142 | 0.0 | 1.6 | 0.00 | 0.00 | 0.00 | 44 | 1006.3 |
| 20260504035446 | 20 | 0 | 0.0 | 0.0 | 0.00 | 0.00 | 0.00 | 42 | 1006.3 |
| 20260504034947 | 20 | 161 | 0.0 | 4.8 | 0.00 | 0.00 | 0.00 | 40 | 1006.2 |
| 20260504033946 | 21 | 220 | 0.0 | 6.4 | 0.00 | 0.00 | 0.00 | 37 | 1006.2 |
| 20260504033446 | 21 | 220 | 0.0 | 6.4 | 0.00 | 0.00 | 0.00 | 37 | 1006.1 |
| 20260504032446 | 21 | 235 | 0.0 | 1.6 | 0.00 | 0.00 | 0.00 | 35 | 1006.0 |
| 20260504031946 | 21 | 235 | 0.0 | 1.6 | 0.00 | 0.00 | 0.00 | 33 | 1006.0 |
| 20260504031446 | 21 | 235 | 0.0 | 1.6 | 0.00 | 0.00 | 0.00 | 35 | 1005.9 |
| 20260504030946 | 22 | 0 | 0.0 | 0.0 | 0.00 | 0.00 | 0.00 | 33 | 1006.1 |
| 20260504030446 | 22 | 235 | 0.0 | 1.6 | 0.00 | 0.00 | 0.00 | 33 | 1006.1 |
| 20260504025946 | 22 | 235 | 0.0 | 1.6 | 0.00 | 0.00 | 0.00 | 32 | 1006.1 |
| 20260504025446 | 22 | 235 | 0.0 | 1.6 | 0.00 | 0.00 | 0.00 | 30 | 1006.1 |
| 20260504024446 | 23 | 235 | 0.0 | 3.2 | 0.00 | 0.00 | 0.00 | 29 | 1006.1 |
| 20260504023446 | 24 | 0 | 0.0 | 0.0 | 0.00 | 0.00 | 0.00 | 29 | 1006.1 |
| 20260504022946 | 24 | 0 | 0.0 | 0.0 | 0.00 | 0.00 | 0.00 | 29 | 1006.1 |
| 20260504021946 | 25 | 0 | 0.0 | 0.0 | 0.00 | 0.00 | 0.00 | 26 | 1006.2 |
| 20260504021445 | 25 | 0 | 0.0 | 0.0 | 0.00 | 0.00 | 0.00 | 27 | 1006.2 |
| 20260504020945 | 25 | 0 | 0.0 | 0.0 | 0.00 | 0.00 | 0.00 | 27 | 1006.3 |
| 20260504020446 | 25 | 0 | 0.0 | 0.0 | 0.00 | 0.00 | 0.00 | 27 | 1006.3 |
| 20260504015946 | 25 | 0 | 0.0 | 0.0 | 0.00 | 0.00 | 0.00 | 25 | 1006.3 |
| 20260504015446 | 26 | 0 | 0.0 | 0.0 | 0.00 | 0.00 | 0.00 | 24 | 1006.3 |
| 20260504014446 | 26 | 0 | 0.0 | 0.0 | 0.00 | 0.00 | 0.00 | 24 | 1006.5 |
| 20260504013446 | 26 | 294 | 1.6 | 6.4 | 0.00 | 0.00 | 0.00 | 24 | 1006.5 |
| 20260504012946 | 26 | 299 | 0.0 | 4.8 | 0.00 | 0.00 | 0.00 | 24 | 1006.5 |
| 20260504012446 | 26 | 268 | 0.0 | 4.8 | 0.00 | 0.00 | 0.00 | 25 | 1006.6 |
| 20260504011946 | 26 | 268 | 0.0 | 4.8 | 0.00 | 0.00 | 0.00 | 24 | 1006.6 |
| 20260504010946 | 27 | 0 | 0.0 | 0.0 | 0.00 | 0.00 | 0.00 | 24 | 1006.7 |
| 20260504010446 | 26 | 0 | 0.0 | 0.0 | 0.00 | 0.00 | 0.00 | 23 | 1006.6 |
| 20260504005446 | 26 | 0 | 0.0 | 0.0 | 0.00 | 0.00 | 0.00 | 23 | 1006.8 |
| 20260504004946 | 26 | 0 | 0.0 | 0.0 | 0.00 | 0.00 | 0.00 | 24 | 1006.9 |
| 20260504003946 | 26 | 219 | 1.6 | 11.3 | 0.00 | 0.00 | 0.00 | 24 | 1007.0 |
| 20260504002945 | 26 | 236 | 1.6 | 11.3 | 0.00 | 0.00 | 0.00 | 22 | 1007.0 |
| 20260504001946 | 26 | 286 | 3.2 | 11.3 | 0.00 | 0.00 | 0.00 | 23 | 1007.1 |
| 20260504001446 | 26 | 267 | 3.2 | 11.3 | 0.00 | 0.00 | 0.00 | 24 | 1007.2 |
| 20260504000946 | 26 | 231 | 1.6 | 8.0 | 0.00 | 0.00 | 0.00 | 22 | 1007.2 |
| 20260504000447 | 26 | 242 | 3.2 | 8.0 | 0.00 | 0.00 | 0.00 | 23 | 1007.3 |
| 20260503235946 | 26 | 239 | 1.6 | 8.0 | 0.00 | 0.00 | 0.00 | 24 | 1007.3 |
| 20260503234946 | 26 | 229 | 3.2 | 9.7 | 0.00 | 0.00 | 0.00 | 23 | 1007.4 |
| 20260503234445 | 26 | 265 | 3.2 | 11.3 | 0.00 | 0.00 | 0.00 | 22 | 1007.4 |
| 20260503233446 | 26 | 296 | 1.6 | 12.9 | 0.00 | 0.00 | 0.00 | 24 | 1007.5 |
| 20260503232946 | 26 | 300 | 1.6 | 12.9 | 0.00 | 0.00 | 0.00 | 23 | 1007.5 |
| 20260503231945 | 26 | 271 | 3.2 | 14.5 | 0.00 | 0.00 | 0.00 | 23 | 1007.7 |
| 20260503231445 | 26 | 286 | 4.8 | 12.9 | 0.00 | 0.00 | 0.00 | 25 | 1007.9 |
| 20260503230946 | 26 | 282 | 6.4 | 12.9 | 0.00 | 0.00 | 0.00 | 23 | 1007.8 |
| 20260503230446 | 26 | 270 | 6.4 | 12.9 | 0.00 | 0.00 | 0.00 | 25 | 1007.9 |
| 20260503225946 | 26 | 271 | 4.8 | 12.9 | 0.00 | 0.00 | 0.00 | 24 | 1007.9 |
| 20260503224946 | 25 | 271 | 1.6 | 12.9 | 0.00 | 0.00 | 0.00 | 24 | 1008.1 |
| 20260503223946 | 25 | 246 | 3.2 | 9.7 | 0.00 | 0.00 | 0.00 | 22 | 1008.3 |
| 20260503222947 | 26 | 316 | 3.2 | 11.3 | 0.00 | 0.00 | 0.00 | 23 | 1008.4 |
| 20260503222446 | 26 | 316 | 3.2 | 11.3 | 0.00 | 0.00 | 0.00 | 24 | 1008.5 |